Time,TemperatureF,DewpointF,PressureIn,WindDirection,WindDirectionDegrees,WindSpeedMPH,WindSpeedGustMPH,Humidity,HourlyPrecipIn,Conditions,Clouds,dailyrainin,SoftwareType,DateUTC
2013-12-25 00:00:00,21.9,14.6,27.73,WNW,285,0.0,0.0,73,0.00,,---,0.00,VWS V14.01,2013-12-25 05:00:00,
2013-12-25 00:01:00,21.9,14.6,27.73,WNW,285,0.0,0.0,73,0.00,,---,0.00,VWS V14.01,2013-12-25 05:01:00,
2013-12-25 00:02:00,21.7,14.4,27.73,WNW,285,0.0,0.0,73,0.00,,---,0.00,VWS V14.01,2013-12-25 05:02:00,
2013-12-25 00:07:00,21.6,14.3,27.73,WNW,286,0.0,0.0,73,0.00,,---,0.00,VWS V14.01,2013-12-25 05:07:00,
2013-12-25 00:12:00,21.6,14.6,27.73,WNW,285,0.0,0.0,74,0.00,,---,0.00,VWS V14.01,2013-12-25 05:12:00,
2013-12-25 00:17:00,21.4,14.4,27.73,WNW,285,0.0,0.0,74,0.00,,---,0.00,VWS V14.01,2013-12-25 05:17:00,
2013-12-25 00:22:00,21.2,14.5,27.73,WNW,285,0.0,0.0,75,0.00,,---,0.00,VWS V14.01,2013-12-25 05:22:00,
2013-12-25 00:27:00,21.0,14.7,27.73,WNW,285,0.0,0.0,76,0.00,,---,0.00,VWS V14.01,2013-12-25 05:27:00,
2013-12-25 00:32:00,20.8,14.5,27.73,WNW,285,0.0,0.0,76,0.00,,---,0.00,VWS V14.01,2013-12-25 05:32:00,
2013-12-25 00:37:00,20.7,14.3,27.73,WNW,285,0.0,0.0,76,0.00,,---,0.00,VWS V14.01,2013-12-25 05:37:00,
2013-12-25 00:42:00,20.5,14.1,27.73,WNW,285,0.0,0.0,76,0.00,,---,0.00,VWS V14.01,2013-12-25 05:42:00,
2013-12-25 00:47:00,20.5,14.1,27.73,WNW,285,0.0,0.0,76,0.00,,---,0.00,VWS V14.01,2013-12-25 05:47:00,
2013-12-25 00:52:00,20.5,14.1,27.73,WNW,285,0.0,0.0,76,0.00,,---,0.00,VWS V14.01,2013-12-25 05:52:00,
2013-12-25 00:57:00,20.3,14.0,27.73,WNW,285,0.0,0.0,76,0.00,,---,0.00,VWS V14.01,2013-12-25 05:57:00,
2013-12-25 01:02:00,20.3,14.3,27.73,WNW,285,0.0,0.0,77,0.00,,---,0.00,VWS V14.01,2013-12-25 06:02:00,
2013-12-25 01:07:00,20.1,14.1,27.73,WNW,285,0.0,0.0,77,0.00,,---,0.00,VWS V14.01,2013-12-25 06:07:00,
2013-12-25 01:12:00,20.1,14.1,27.73,WNW,285,0.0,0.0,77,0.00,,---,0.00,VWS V14.01,2013-12-25 06:12:00,
2013-12-25 01:17:00,20.1,14.4,27.73,WNW,285,0.0,0.0,78,0.00,,---,0.00,VWS V14.01,2013-12-25 06:17:00,
2013-12-25 01:22:00,19.9,14.2,27.73,WNW,285,0.0,0.0,78,0.00,,---,0.00,VWS V14.01,2013-12-25 06:22:00,
2013-12-25 01:27:00,19.9,14.2,27.73,WNW,285,0.0,0.0,78,0.00,,---,0.00,VWS V14.01,2013-12-25 06:27:00,
2013-12-25 01:32:00,19.9,14.5,27.73,WNW,285,0.0,0.0,79,0.00,,---,0.00,VWS V14.01,2013-12-25 06:32:00,
2013-12-25 01:37:00,19.9,14.5,27.73,WNW,285,0.0,0.0,79,0.00,,---,0.00,VWS V14.01,2013-12-25 06:37:00,
2013-12-25 01:42:00,19.9,14.5,27.73,WNW,285,0.0,0.0,79,0.00,,---,0.00,VWS V14.01,2013-12-25 06:42:00,
2013-12-25 01:47:00,19.8,14.3,27.73,WNW,285,0.0,0.0,79,0.00,,---,0.00,VWS V14.01,2013-12-25 06:47:00,
2013-12-25 01:52:00,19.8,14.3,27.73,WNW,285,0.0,0.0,79,0.00,,---,0.00,VWS V14.01,2013-12-25 06:52:00,
2013-12-25 01:57:00,19.8,14.3,27.73,WNW,285,0.0,0.0,79,0.00,,---,0.00,VWS V14.01,2013-12-25 06:57:00,
2013-12-25 02:02:00,19.8,14.6,27.73,WNW,285,0.0,0.0,80,0.00,,---,0.00,VWS V14.01,2013-12-25 07:02:00,
2013-12-25 02:07:00,19.8,14.6,27.73,WNW,285,0.0,0.0,80,0.00,,---,0.00,VWS V14.01,2013-12-25 07:07:00,
2013-12-25 02:12:00,19.8,14.6,27.73,WNW,285,2.7,2.7,80,0.00,,---,0.00,VWS V14.01,2013-12-25 07:12:00,
2013-12-25 02:17:00,19.8,14.6,27.73,WNW,285,0.0,0.0,80,0.00,,---,0.00,VWS V14.01,2013-12-25 07:17:00,
2013-12-25 02:20:00,19.8,14.6,27.73,WNW,285,0.0,0.0,80,0.00,,---,0.00,VWS V14.01,2013-12-25 07:20:00,
2013-12-25 02:25:00,19.6,14.4,27.73,WNW,285,0.0,0.0,80,0.00,,---,0.00,VWS V14.01,2013-12-25 07:25:00,
2013-12-25 02:30:00,19.6,14.4,27.73,WNW,285,0.0,0.0,80,0.00,,---,0.00,VWS V14.01,2013-12-25 07:30:00,
2013-12-25 02:35:00,19.6,14.7,27.73,WNW,285,0.0,0.0,81,0.00,,---,0.00,VWS V14.01,2013-12-25 07:35:00,
2013-12-25 02:40:00,19.6,14.7,27.73,WNW,285,0.0,0.0,81,0.00,,---,0.00,VWS V14.01,2013-12-25 07:40:00,
2013-12-25 02:45:00,19.6,14.7,27.73,WNW,285,0.0,0.0,81,0.00,,---,0.00,VWS V14.01,2013-12-25 07:45:00,
2013-12-25 02:50:00,19.6,14.7,27.73,WNW,285,0.0,0.0,81,0.00,,---,0.00,VWS V14.01,2013-12-25 07:50:00,
2013-12-25 02:55:00,19.6,14.7,27.73,WNW,285,0.0,0.0,81,0.00,,---,0.00,VWS V14.01,2013-12-25 07:55:00,
2013-12-25 03:00:00,19.6,14.7,27.73,WNW,285,0.0,0.0,81,0.00,,---,0.00,VWS V14.01,2013-12-25 08:00:00,
2013-12-25 03:05:00,19.6,14.7,27.73,WNW,285,0.0,0.0,81,0.00,,---,0.00,VWS V14.01,2013-12-25 08:05:00,
2013-12-25 03:10:00,19.4,14.5,27.73,WNW,285,0.0,0.0,81,0.00,,---,0.00,VWS V14.01,2013-12-25 08:10:00,
2013-12-25 03:15:00,19.6,14.7,27.73,WNW,285,0.0,0.0,81,0.00,,---,0.00,VWS V14.01,2013-12-25 08:15:00,
2013-12-25 03:20:00,19.4,14.5,27.73,WNW,285,0.0,0.0,81,0.00,,---,0.00,VWS V14.01,2013-12-25 08:20:00,
2013-12-25 03:25:00,19.4,14.8,27.73,WNW,285,0.0,0.0,82,0.00,,---,0.00,VWS V14.01,2013-12-25 08:25:00,
2013-12-25 03:30:00,19.4,14.8,27.73,WNW,285,0.0,0.0,82,0.00,,---,0.00,VWS V14.01,2013-12-25 08:30:00,
2013-12-25 03:35:00,19.4,14.8,27.73,WNW,285,0.0,0.0,82,0.00,,---,0.00,VWS V14.01,2013-12-25 08:35:00,
2013-12-25 03:40:00,19.4,14.8,27.73,WNW,285,0.0,0.0,82,0.00,,---,0.00,VWS V14.01,2013-12-25 08:40:00,
2013-12-25 03:45:00,19.2,14.9,27.73,WNW,285,0.0,0.0,83,0.00,,---,0.00,VWS V14.01,2013-12-25 08:45:00,
2013-12-25 03:50:00,19.2,14.9,27.73,WNW,285,0.0,0.0,83,0.00,,---,0.00,VWS V14.01,2013-12-25 08:50:00,
2013-12-25 03:55:00,19.2,14.9,27.73,WNW,285,0.0,0.0,83,0.00,,---,0.00,VWS V14.01,2013-12-25 08:55:00,
2013-12-25 04:00:00,19.2,14.9,27.73,WNW,285,0.0,0.0,83,0.00,,---,0.00,VWS V14.01,2013-12-25 09:00:00,
2013-12-25 04:05:00,19.2,14.9,27.73,WNW,285,0.0,0.0,83,0.00,,---,0.00,VWS V14.01,2013-12-25 09:05:00,
2013-12-25 04:10:00,19.2,14.9,27.73,WNW,285,0.0,0.0,83,0.00,,---,0.00,VWS V14.01,2013-12-25 09:10:00,
2013-12-25 04:15:00,19.2,14.9,27.73,WNW,285,0.0,0.0,83,0.00,,---,0.00,VWS V14.01,2013-12-25 09:15:00,
2013-12-25 04:20:00,19.2,14.9,27.73,WNW,285,0.0,0.0,83,0.00,,---,0.00,VWS V14.01,2013-12-25 09:20:00,
2013-12-25 04:24:00,19.2,14.9,27.73,WNW,285,0.0,0.0,83,0.00,,---,0.00,VWS V14.01,2013-12-25 09:24:00,
2013-12-25 04:29:00,19.2,14.9,27.73,WNW,285,0.0,0.0,83,0.00,,---,0.00,VWS V14.01,2013-12-25 09:29:00,
2013-12-25 04:34:00,19.2,14.9,27.73,WNW,285,0.0,0.0,83,0.00,,---,0.00,VWS V14.01,2013-12-25 09:34:00,
2013-12-25 04:39:00,19.4,15.1,27.73,WNW,285,0.0,0.0,83,0.00,,---,0.00,VWS V14.01,2013-12-25 09:39:00,
2013-12-25 04:44:00,19.6,15.0,27.73,WNW,285,0.0,0.0,82,0.00,,---,0.00,VWS V14.01,2013-12-25 09:44:00,
2013-12-25 04:49:00,19.6,15.0,27.73,WNW,285,0.0,0.0,82,0.00,,---,0.00,VWS V14.01,2013-12-25 09:49:00,
2013-12-25 04:54:00,19.4,15.1,27.73,WNW,285,0.0,0.0,83,0.00,,---,0.00,VWS V14.01,2013-12-25 09:54:00,
2013-12-25 04:59:00,19.6,15.0,27.73,WNW,285,0.0,0.0,82,0.00,,---,0.00,VWS V14.01,2013-12-25 09:59:00,
2013-12-25 05:04:00,19.4,15.1,27.73,WNW,285,0.0,0.0,83,0.00,,---,0.00,VWS V14.01,2013-12-25 10:04:00,
2013-12-25 05:09:00,19.6,15.0,27.73,WNW,285,0.0,0.0,82,0.00,,---,0.00,VWS V14.01,2013-12-25 10:09:00,
2013-12-25 05:14:00,19.6,15.0,27.73,WNW,285,0.0,0.0,82,0.00,,---,0.00,VWS V14.01,2013-12-25 10:14:00,
2013-12-25 05:19:00,19.4,14.8,27.73,WNW,285,0.0,0.0,82,0.00,,---,0.00,VWS V14.01,2013-12-25 10:19:00,
2013-12-25 05:24:00,19.4,15.1,27.73,WNW,285,0.0,0.0,83,0.00,,---,0.00,VWS V14.01,2013-12-25 10:24:00,
2013-12-25 05:29:00,19.2,14.9,27.73,WNW,284,0.0,0.0,83,0.00,,---,0.00,VWS V14.01,2013-12-25 10:29:00,
2013-12-25 05:34:00,19.2,14.9,27.73,WNW,285,0.0,0.0,83,0.00,,---,0.00,VWS V14.01,2013-12-25 10:34:00,
2013-12-25 05:39:00,19.2,14.9,27.73,WNW,285,0.0,0.0,83,0.00,,---,0.00,VWS V14.01,2013-12-25 10:39:00,
2013-12-25 05:44:00,19.2,14.9,27.73,WNW,285,0.0,0.0,83,0.00,,---,0.00,VWS V14.01,2013-12-25 10:44:00,
2013-12-25 05:49:00,19.0,15.0,27.73,WNW,285,0.0,0.0,84,0.00,,---,0.00,VWS V14.01,2013-12-25 10:49:00,
2013-12-25 05:54:00,19.2,15.2,27.73,WNW,285,0.0,0.0,84,0.00,,---,0.00,VWS V14.01,2013-12-25 10:54:00,
2013-12-25 05:59:00,19.0,15.0,27.73,WNW,285,0.0,0.0,84,0.00,,---,0.00,VWS V14.01,2013-12-25 10:59:00,
2013-12-25 06:04:00,19.2,15.5,27.76,WNW,285,0.0,0.0,85,0.00,,---,0.00,VWS V14.01,2013-12-25 11:04:00,
2013-12-25 06:09:00,19.4,15.6,27.76,WNW,285,0.0,0.0,85,0.00,,---,0.00,VWS V14.01,2013-12-25 11:09:00,
2013-12-25 06:14:00,19.2,15.5,27.76,WNW,285,0.0,0.0,85,0.00,,---,0.00,VWS V14.01,2013-12-25 11:14:00,
2013-12-25 06:19:00,19.2,15.5,27.76,WNW,285,0.0,0.0,85,0.00,,---,0.00,VWS V14.01,2013-12-25 11:19:00,
2013-12-25 06:24:00,19.2,15.2,27.76,WNW,285,0.0,0.0,84,0.00,,---,0.00,VWS V14.01,2013-12-25 11:24:00,
2013-12-25 06:29:00,19.4,15.4,27.76,WNW,285,0.0,0.0,84,0.00,,---,0.00,VWS V14.01,2013-12-25 11:29:00,
2013-12-25 06:34:00,19.2,15.2,27.76,WNW,285,0.0,0.0,84,0.00,,---,0.00,VWS V14.01,2013-12-25 11:34:00,
2013-12-25 06:39:00,19.2,15.2,27.76,WNW,285,0.0,0.0,84,0.00,,---,0.00,VWS V14.01,2013-12-25 11:39:00,
2013-12-25 06:44:00,19.4,15.4,27.76,WNW,285,0.0,0.0,84,0.00,,---,0.00,VWS V14.01,2013-12-25 11:44:00,
2013-12-25 06:49:00,19.9,15.9,27.76,NE,56,0.0,0.0,84,0.00,,---,0.00,VWS V14.01,2013-12-25 11:49:00,
2013-12-25 06:54:00,20.3,16.0,27.76,ESE,105,0.0,0.0,83,0.00,,---,0.00,VWS V14.01,2013-12-25 11:54:00,
2013-12-25 06:59:00,20.5,16.1,27.76,ESE,111,0.0,0.0,83,0.00,,---,0.00,VWS V14.01,2013-12-25 11:59:00,
2013-12-25 07:04:00,20.5,15.9,27.76,WSW,257,2.7,4.0,82,0.00,,---,0.00,VWS V14.01,2013-12-25 12:04:00,
2013-12-25 07:09:00,20.7,16.0,27.76,WNW,293,3.1,3.1,82,0.00,,---,0.00,VWS V14.01,2013-12-25 12:09:00,
2013-12-25 07:14:00,20.5,15.6,27.76,WNW,293,0.0,0.0,81,0.00,,---,0.00,VWS V14.01,2013-12-25 12:14:00,
2013-12-25 07:19:00,20.5,15.6,27.76,WNW,293,3.1,3.1,81,0.00,,---,0.00,VWS V14.01,2013-12-25 12:19:00,
2013-12-25 07:24:00,20.5,15.6,27.76,WNW,293,2.7,3.1,81,0.00,,---,0.00,VWS V14.01,2013-12-25 12:24:00,
2013-12-25 07:29:00,20.5,15.3,27.76,WNW,293,0.0,2.7,80,0.00,,---,0.00,VWS V14.01,2013-12-25 12:29:00,
2013-12-25 07:34:00,20.3,15.1,27.79,WNW,293,0.0,0.0,80,0.00,,---,0.00,VWS V14.01,2013-12-25 12:34:00,
2013-12-25 07:39:00,20.5,15.3,27.79,WNW,293,2.2,2.7,80,0.00,,---,0.00,VWS V14.01,2013-12-25 12:39:00,
2013-12-25 07:44:00,20.5,15.0,27.79,WNW,293,0.0,0.0,79,0.00,,---,0.00,VWS V14.01,2013-12-25 12:44:00,
2013-12-25 07:49:00,20.5,15.0,27.79,WNW,293,0.0,0.0,79,0.00,,---,0.00,VWS V14.01,2013-12-25 12:49:00,
2013-12-25 07:54:00,20.7,15.2,27.79,WNW,293,0.0,0.0,79,0.00,,---,0.00,VWS V14.01,2013-12-25 12:54:00,
2013-12-25 07:59:00,20.5,15.0,27.79,WNW,293,2.7,2.7,79,0.00,,---,0.00,VWS V14.01,2013-12-25 12:59:00,
2013-12-25 08:04:00,20.8,15.4,27.79,SW,224,2.7,4.0,79,0.00,,---,0.00,VWS V14.01,2013-12-25 13:04:00,
2013-12-25 08:09:00,21.0,15.8,27.79,WSW,239,2.2,2.2,80,0.00,,---,0.00,VWS V14.01,2013-12-25 13:09:00,
2013-12-25 08:14:00,21.2,16.0,27.79,SW,230,3.6,4.0,80,0.00,,---,0.00,VWS V14.01,2013-12-25 13:14:00,
2013-12-25 08:19:00,21.7,16.5,27.79,SW,230,0.0,0.0,80,0.00,,---,0.00,VWS V14.01,2013-12-25 13:19:00,
2013-12-25 08:24:00,21.9,16.4,27.79,SW,230,0.0,0.0,79,0.00,,---,0.00,VWS V14.01,2013-12-25 13:24:00,
2013-12-25 08:29:00,22.3,16.8,27.79,SW,230,0.0,0.0,79,0.00,,---,0.00,VWS V14.01,2013-12-25 13:29:00,
2013-12-25 08:34:00,22.6,17.1,27.79,SW,230,0.0,0.0,79,0.00,,---,0.00,VWS V14.01,2013-12-25 13:34:00,
2013-12-25 08:39:00,22.8,17.6,27.79,NE,35,0.0,0.0,80,0.00,,---,0.00,VWS V14.01,2013-12-25 13:39:00,
2013-12-25 08:44:00,23.2,17.6,27.79,NE,35,2.2,3.1,79,0.00,,---,0.00,VWS V14.01,2013-12-25 13:44:00,
2013-12-25 08:49:00,23.5,17.7,27.79,North,0,3.1,3.1,78,0.00,,---,0.00,VWS V14.01,2013-12-25 13:49:00,
2013-12-25 08:54:00,23.7,17.9,27.79,North,350,0.0,0.0,78,0.00,,---,0.00,VWS V14.01,2013-12-25 13:54:00,
2013-12-25 08:59:00,24.3,18.4,27.79,NNE,17,0.0,0.0,78,0.00,,---,0.00,VWS V14.01,2013-12-25 13:59:00,
2013-12-25 09:04:00,24.8,18.6,27.79,ENE,73,3.1,3.1,77,0.00,,---,0.00,VWS V14.01,2013-12-25 14:04:00,
2013-12-25 09:09:00,26.1,19.5,27.79,NE,50,3.1,4.0,76,0.00,,---,0.00,VWS V14.01,2013-12-25 14:09:00,
2013-12-25 09:14:00,27.0,19.8,27.79,ENE,62,2.2,2.7,74,0.00,,---,0.00,VWS V14.01,2013-12-25 14:14:00,
2013-12-25 09:19:00,27.1,19.3,27.79,North,3,3.1,3.1,72,0.00,,---,0.00,VWS V14.01,2013-12-25 14:19:00,
2013-12-25 09:24:00,27.5,19.0,27.79,NE,49,3.1,4.9,70,0.00,,---,0.00,VWS V14.01,2013-12-25 14:24:00,
2013-12-25 09:29:00,27.9,18.7,27.79,East,90,3.1,6.3,68,0.00,,---,0.00,VWS V14.01,2013-12-25 14:29:00,
2013-12-25 09:34:00,28.0,17.8,27.79,ESE,104,2.7,3.1,65,0.00,,---,0.00,VWS V14.01,2013-12-25 14:34:00,
2013-12-25 09:39:00,28.2,17.6,27.79,ENE,68,3.6,5.4,64,0.00,,---,0.00,VWS V14.01,2013-12-25 14:39:00,
2013-12-25 09:44:00,28.4,17.4,27.79,ESE,103,3.1,5.4,63,0.00,,---,0.00,VWS V14.01,2013-12-25 14:44:00,
2013-12-25 09:49:00,28.6,17.2,27.79,SE,126,3.1,5.8,62,0.00,,---,0.00,VWS V14.01,2013-12-25 14:49:00,
2013-12-25 09:54:00,28.8,17.0,27.79,SSE,159,3.6,5.8,61,0.00,,---,0.00,VWS V14.01,2013-12-25 14:54:00,
2013-12-25 09:59:00,28.9,16.8,27.79,SE,138,7.6,7.6,60,0.00,,---,0.00,VWS V14.01,2013-12-25 14:59:00,
2013-12-25 10:04:00,29.1,16.6,27.79,ESE,122,2.7,5.4,59,0.00,,---,0.00,VWS V14.01,2013-12-25 15:04:00,
2013-12-25 10:09:00,29.1,15.8,27.79,SE,143,3.6,5.8,57,0.00,,---,0.00,VWS V14.01,2013-12-25 15:09:00,
2013-12-25 10:14:00,29.5,16.5,27.79,ESE,121,4.0,4.0,58,0.00,,---,0.00,VWS V14.01,2013-12-25 15:14:00,
2013-12-25 10:19:00,29.7,15.9,27.79,NNE,18,2.2,5.8,56,0.00,,---,0.00,VWS V14.01,2013-12-25 15:19:00,
2013-12-25 10:24:00,29.5,15.3,27.79,NNE,22,4.9,6.3,55,0.00,,---,0.00,VWS V14.01,2013-12-25 15:24:00,
2013-12-25 10:29:00,29.7,15.5,27.79,East,90,2.2,4.0,55,0.00,,---,0.00,VWS V14.01,2013-12-25 15:29:00,
2013-12-25 10:34:00,29.8,15.2,27.79,East,80,6.3,8.7,54,0.00,,---,0.00,VWS V14.01,2013-12-25 15:34:00,
2013-12-25 10:39:00,30.0,15.0,27.79,ENE,59,5.8,8.1,53,0.00,,---,0.00,VWS V14.01,2013-12-25 15:39:00,
2013-12-25 10:44:00,29.8,14.4,27.79,ESE,104,3.1,6.3,52,0.00,,---,0.00,VWS V14.01,2013-12-25 15:44:00,
2013-12-25 10:49:00,30.0,14.5,27.79,NE,44,5.8,6.3,52,0.00,,---,0.00,VWS V14.01,2013-12-25 15:49:00,
2013-12-25 10:54:00,30.2,14.7,27.79,East,95,6.7,6.7,52,0.00,,---,0.00,VWS V14.01,2013-12-25 15:54:00,
2013-12-25 10:59:00,30.2,14.3,27.79,ESE,106,5.4,5.4,51,0.00,,---,0.00,VWS V14.01,2013-12-25 15:59:00,
2013-12-25 11:04:00,30.6,14.6,27.79,NNE,32,3.1,4.0,51,0.00,,---,0.00,VWS V14.01,2013-12-25 16:04:00,
2013-12-25 11:09:00,30.7,14.8,27.79,NE,54,2.7,3.1,51,0.00,,---,0.00,VWS V14.01,2013-12-25 16:09:00,
2013-12-25 11:14:00,31.1,15.1,27.79,ENE,59,6.3,6.3,51,0.00,,---,0.00,VWS V14.01,2013-12-25 16:14:00,
2013-12-25 11:19:00,31.3,15.3,27.79,SE,142,2.2,4.5,51,0.00,,---,0.00,VWS V14.01,2013-12-25 16:19:00,
2013-12-25 11:24:00,31.5,15.9,27.79,NE,43,4.0,4.0,52,0.00,,---,0.00,VWS V14.01,2013-12-25 16:24:00,
2013-12-25 11:29:00,31.6,15.6,27.79,ENE,76,3.6,3.6,51,0.00,,---,0.00,VWS V14.01,2013-12-25 16:29:00,
2013-12-25 11:34:00,31.6,15.6,27.79,SE,131,3.1,6.3,51,0.00,,---,0.00,VWS V14.01,2013-12-25 16:34:00,
2013-12-25 11:39:00,31.8,15.8,27.79,SSE,151,2.2,2.2,51,0.00,,---,0.00,VWS V14.01,2013-12-25 16:39:00,
2013-12-25 11:44:00,32.2,16.1,27.79,NE,44,5.8,8.1,51,0.00,,---,0.00,VWS V14.01,2013-12-25 16:44:00,
2013-12-25 11:49:00,32.2,15.6,27.76,East,80,4.9,4.9,50,0.00,,---,0.00,VWS V14.01,2013-12-25 16:49:00,
2013-12-25 11:54:00,32.4,15.8,27.76,ESE,103,4.0,4.0,50,0.00,,---,0.00,VWS V14.01,2013-12-25 16:54:00,
2013-12-25 11:59:00,32.7,16.1,27.76,NE,48,5.4,5.4,50,0.00,,---,0.00,VWS V14.01,2013-12-25 16:59:00,
2013-12-25 12:04:00,32.7,16.1,27.76,ESE,110,3.6,3.6,50,0.00,,---,0.00,VWS V14.01,2013-12-25 17:04:00,
2013-12-25 12:09:00,33.3,16.6,27.76,ENE,70,3.1,5.8,50,0.00,,---,0.00,VWS V14.01,2013-12-25 17:09:00,
2013-12-25 12:14:00,33.3,16.2,27.76,NE,50,4.9,6.3,49,0.00,,---,0.00,VWS V14.01,2013-12-25 17:14:00,
2013-12-25 12:19:00,33.4,15.9,27.76,East,83,3.6,4.0,48,0.00,,---,0.00,VWS V14.01,2013-12-25 17:19:00,
2013-12-25 12:24:00,33.6,16.0,27.76,East,86,3.1,5.8,48,0.00,,---,0.00,VWS V14.01,2013-12-25 17:24:00,
2013-12-25 12:29:00,34.0,16.4,27.76,ESE,120,5.8,5.8,48,0.00,,---,0.00,VWS V14.01,2013-12-25 17:29:00,
2013-12-25 12:34:00,34.2,16.5,27.73,SE,127,4.0,5.8,48,0.00,,---,0.00,VWS V14.01,2013-12-25 17:34:00,
2013-12-25 12:39:00,34.5,16.9,27.73,ESE,106,8.1,8.1,48,0.00,,---,0.00,VWS V14.01,2013-12-25 17:39:00,
2013-12-25 12:44:00,34.7,17.0,27.73,SE,133,4.0,4.9,48,0.00,,---,0.00,VWS V14.01,2013-12-25 17:44:00,
2013-12-25 12:49:00,34.7,16.5,27.73,East,96,4.0,4.0,47,0.00,,---,0.00,VWS V14.01,2013-12-25 17:49:00,
2013-12-25 12:54:00,34.9,16.2,27.73,ESE,110,5.4,5.4,46,0.00,,---,0.00,VWS V14.01,2013-12-25 17:54:00,
2013-12-25 12:59:00,35.1,16.4,27.73,ESE,105,5.4,5.8,46,0.00,,---,0.00,VWS V14.01,2013-12-25 17:59:00,
2013-12-25 13:04:00,35.2,16.5,27.73,NE,40,5.8,5.8,46,0.00,,---,0.00,VWS V14.01,2013-12-25 18:04:00,
2013-12-25 13:09:00,35.4,16.7,27.73,SE,125,4.9,5.8,46,0.00,,---,0.00,VWS V14.01,2013-12-25 18:09:00,
2013-12-25 13:14:00,35.6,16.9,27.73,NE,54,2.7,4.0,46,0.00,,---,0.00,VWS V14.01,2013-12-25 18:14:00,
2013-12-25 13:19:00,35.8,17.0,27.70,ESE,121,3.1,5.4,46,0.00,,---,0.00,VWS V14.01,2013-12-25 18:19:00,
2013-12-25 13:24:00,35.8,17.0,27.70,ENE,73,3.6,3.6,46,0.00,,---,0.00,VWS V14.01,2013-12-25 18:24:00,
2013-12-25 13:29:00,35.8,17.0,27.70,East,87,4.9,4.9,46,0.00,,---,0.00,VWS V14.01,2013-12-25 18:29:00,
2013-12-25 13:34:00,35.8,16.5,27.70,NE,51,2.7,4.0,45,0.00,,---,0.00,VWS V14.01,2013-12-25 18:34:00,
2013-12-25 13:39:00,36.0,16.7,27.70,SE,134,4.0,5.4,45,0.00,,---,0.00,VWS V14.01,2013-12-25 18:39:00,
2013-12-25 13:44:00,36.1,16.9,27.70,ENE,73,5.4,5.4,45,0.00,,---,0.00,VWS V14.01,2013-12-25 18:44:00,
2013-12-25 13:49:00,36.3,17.0,27.70,ESE,114,3.6,5.4,45,0.00,,---,0.00,VWS V14.01,2013-12-25 18:49:00,
2013-12-25 13:54:00,36.7,17.9,27.70,SE,142,2.2,3.1,46,0.00,,---,0.00,VWS V14.01,2013-12-25 18:54:00,
2013-12-25 13:59:00,36.7,17.9,27.70,SE,140,2.7,3.1,46,0.00,,---,0.00,VWS V14.01,2013-12-25 18:59:00,
2013-12-25 14:04:00,36.9,18.0,27.70,SE,128,2.7,4.0,46,0.00,,---,0.00,VWS V14.01,2013-12-25 19:04:00,
2013-12-25 14:09:00,36.9,18.0,27.70,East,99,3.6,6.3,46,0.00,,---,0.00,VWS V14.01,2013-12-25 19:09:00,
2013-12-25 14:14:00,36.9,17.5,27.70,East,88,4.9,4.9,45,0.00,,---,0.00,VWS V14.01,2013-12-25 19:14:00,
2013-12-25 14:19:00,36.9,17.5,27.70,ESE,113,5.4,5.4,45,0.00,,---,0.00,VWS V14.01,2013-12-25 19:19:00,
2013-12-25 14:24:00,36.9,17.5,27.70,ENE,65,2.7,7.6,45,0.00,,---,0.00,VWS V14.01,2013-12-25 19:24:00,
2013-12-25 14:29:00,36.9,17.5,27.70,NNE,18,4.0,6.3,45,0.00,,---,0.00,VWS V14.01,2013-12-25 19:29:00,
2013-12-25 14:34:00,36.9,17.0,27.70,ENE,72,5.4,6.3,44,0.00,,---,0.00,VWS V14.01,2013-12-25 19:34:00,
2013-12-25 14:39:00,36.9,17.0,27.70,ESE,114,2.2,4.0,44,0.00,,---,0.00,VWS V14.01,2013-12-25 19:39:00,
2013-12-25 14:44:00,36.9,17.5,27.70,East,86,6.3,6.3,45,0.00,,---,0.00,VWS V14.01,2013-12-25 19:44:00,
2013-12-25 14:49:00,37.0,17.7,27.70,ESE,117,6.3,6.3,45,0.00,,---,0.00,VWS V14.01,2013-12-25 19:49:00,
2013-12-25 14:54:00,37.0,17.7,27.70,ESE,108,3.1,4.9,45,0.00,,---,0.00,VWS V14.01,2013-12-25 19:54:00,
2013-12-25 14:59:00,37.0,17.7,27.70,ENE,69,4.0,6.3,45,0.00,,---,0.00,VWS V14.01,2013-12-25 19:59:00,
2013-12-25 15:04:00,37.0,17.2,27.70,ENE,62,2.2,2.2,44,0.00,,---,0.00,VWS V14.01,2013-12-25 20:04:00,
2013-12-25 15:09:00,37.0,17.7,27.70,ESE,116,3.6,3.6,45,0.00,,---,0.00,VWS V14.01,2013-12-25 20:09:00,
2013-12-25 15:14:00,37.0,17.7,27.70,SE,127,3.6,5.4,45,0.00,,---,0.00,VWS V14.01,2013-12-25 20:14:00,
2013-12-25 15:19:00,37.0,17.7,27.70,ENE,66,2.7,3.1,45,0.00,,---,0.00,VWS V14.01,2013-12-25 20:19:00,
2013-12-25 15:24:00,37.0,17.7,27.70,NE,41,3.1,3.1,45,0.00,,---,0.00,VWS V14.01,2013-12-25 20:24:00,
2013-12-25 15:29:00,37.0,17.7,27.70,SE,146,3.6,5.8,45,0.00,,---,0.00,VWS V14.01,2013-12-25 20:29:00,
2013-12-25 15:34:00,37.0,17.7,27.67,ESE,119,3.6,4.0,45,0.00,,---,0.00,VWS V14.01,2013-12-25 20:34:00,
2013-12-25 15:39:00,36.9,17.0,27.67,ESE,120,3.6,3.6,44,0.00,,---,0.00,VWS V14.01,2013-12-25 20:39:00,
2013-12-25 15:44:00,36.9,17.0,27.67,ESE,120,3.1,3.1,44,0.00,,---,0.00,VWS V14.01,2013-12-25 20:44:00,
2013-12-25 15:49:00,36.9,17.0,27.70,ESE,116,6.3,7.6,44,0.00,,---,0.00,VWS V14.01,2013-12-25 20:49:00,
2013-12-25 15:54:00,36.7,16.8,27.70,SSE,153,3.6,3.6,44,0.00,,---,0.00,VWS V14.01,2013-12-25 20:54:00,
2013-12-25 15:59:00,36.5,16.7,27.70,SSE,153,2.2,3.1,44,0.00,,---,0.00,VWS V14.01,2013-12-25 20:59:00,
2013-12-25 16:04:00,36.3,16.5,27.70,SE,134,0.0,3.6,44,0.00,,---,0.00,VWS V14.01,2013-12-25 21:04:00,
2013-12-25 16:09:00,36.3,16.5,27.70,SE,130,4.0,4.0,44,0.00,,---,0.00,VWS V14.01,2013-12-25 21:09:00,
2013-12-25 16:14:00,36.1,16.9,27.70,SE,130,3.1,4.0,45,0.00,,---,0.00,VWS V14.01,2013-12-25 21:14:00,
2013-12-25 16:19:00,36.1,16.9,27.70,SE,130,2.2,2.2,45,0.00,,---,0.00,VWS V14.01,2013-12-25 21:19:00,
2013-12-25 16:24:00,35.8,16.5,27.70,SE,130,3.6,3.6,45,0.00,,---,0.00,VWS V14.01,2013-12-25 21:24:00,
2013-12-25 16:29:00,35.2,16.5,27.70,SSE,161,2.2,2.2,46,0.00,,---,0.00,VWS V14.01,2013-12-25 21:29:00,
2013-12-25 16:34:00,34.7,16.0,27.70,SSE,161,3.1,3.1,46,0.00,,---,0.00,VWS V14.01,2013-12-25 21:34:00,
2013-12-25 16:39:00,34.2,15.6,27.70,SSE,161,0.0,0.0,46,0.00,,---,0.00,VWS V14.01,2013-12-25 21:39:00,
2013-12-25 16:44:00,33.6,16.0,27.70,SSE,161,0.0,3.1,48,0.00,,---,0.00,VWS V14.01,2013-12-25 21:44:00,
2013-12-25 16:49:00,33.4,15.9,27.70,SSE,161,0.0,0.0,48,0.00,,---,0.00,VWS V14.01,2013-12-25 21:49:00,
2013-12-25 16:54:00,33.1,15.5,27.70,East,89,0.0,0.0,48,0.00,,---,0.00,VWS V14.01,2013-12-25 21:54:00,
2013-12-25 16:59:00,32.7,15.7,27.70,ENE,69,0.0,0.0,49,0.00,,---,0.00,VWS V14.01,2013-12-25 21:59:00,
2013-12-25 17:04:00,32.5,15.0,27.70,East,90,0.0,0.0,48,0.00,,---,0.00,VWS V14.01,2013-12-25 22:04:00,
2013-12-25 17:09:00,32.2,14.7,27.70,East,90,0.0,3.1,48,0.00,,---,0.00,VWS V14.01,2013-12-25 22:09:00,
2013-12-25 17:14:00,31.8,14.9,27.70,East,90,0.0,2.7,49,0.00,,---,0.00,VWS V14.01,2013-12-25 22:14:00,
2013-12-25 17:19:00,31.5,14.1,27.70,ENE,70,3.6,4.0,48,0.00,,---,0.00,VWS V14.01,2013-12-25 22:19:00,
2013-12-25 17:24:00,31.6,14.2,27.70,NE,41,0.0,0.0,48,0.00,,---,0.00,VWS V14.01,2013-12-25 22:24:00,
2013-12-25 17:29:00,31.1,13.7,27.70,ENE,69,0.0,3.1,48,0.00,,---,0.00,VWS V14.01,2013-12-25 22:29:00,
2013-12-25 17:34:00,30.7,13.4,27.70,ENE,69,2.7,2.7,48,0.00,,---,0.00,VWS V14.01,2013-12-25 22:34:00,
2013-12-25 17:39:00,30.7,13.4,27.70,NE,48,2.2,2.2,48,0.00,,---,0.00,VWS V14.01,2013-12-25 22:39:00,
2013-12-25 17:44:00,30.4,13.1,27.70,NE,48,3.6,3.6,48,0.00,,---,0.00,VWS V14.01,2013-12-25 22:44:00,
2013-12-25 17:49:00,30.2,13.4,27.70,NE,48,0.0,0.0,49,0.00,,---,0.00,VWS V14.01,2013-12-25 22:49:00,
2013-12-25 17:54:00,30.0,13.2,27.70,NE,46,3.1,3.1,49,0.00,,---,0.00,VWS V14.01,2013-12-25 22:54:00,
2013-12-25 17:59:00,29.8,13.5,27.70,NE,46,0.0,0.0,50,0.00,,---,0.00,VWS V14.01,2013-12-25 22:59:00,
2013-12-25 18:04:00,29.5,13.1,27.70,NE,46,0.0,0.0,50,0.00,,---,0.00,VWS V14.01,2013-12-25 23:04:00,
2013-12-25 18:09:00,29.5,13.1,27.70,NE,46,0.0,2.7,50,0.00,,---,0.00,VWS V14.01,2013-12-25 23:09:00,
2013-12-25 18:14:00,29.5,13.1,27.70,NE,47,2.2,3.6,50,0.00,,---,0.00,VWS V14.01,2013-12-25 23:14:00,
2013-12-25 18:19:00,29.5,13.1,27.70,NE,47,3.6,3.6,50,0.00,,---,0.00,VWS V14.01,2013-12-25 23:19:00,
2013-12-25 18:24:00,29.5,13.1,27.70,NE,47,3.1,3.1,50,0.00,,---,0.00,VWS V14.01,2013-12-25 23:24:00,
2013-12-25 18:29:00,29.5,13.1,27.70,ESE,114,0.0,3.1,50,0.00,,---,0.00,VWS V14.01,2013-12-25 23:29:00,
2013-12-25 18:34:00,29.3,13.0,27.70,NE,44,0.0,0.0,50,0.00,,---,0.00,VWS V14.01,2013-12-25 23:34:00,
2013-12-25 18:39:00,29.1,12.8,27.70,NE,44,0.0,0.0,50,0.00,,---,0.00,VWS V14.01,2013-12-25 23:39:00,
2013-12-25 18:44:00,29.3,13.0,27.70,ENE,65,3.6,3.6,50,0.00,,---,0.00,VWS V14.01,2013-12-25 23:44:00,
2013-12-25 18:49:00,28.9,12.6,27.70,ENE,64,3.6,3.6,50,0.00,,---,0.00,VWS V14.01,2013-12-25 23:49:00,
2013-12-25 18:54:00,28.9,12.6,27.70,ENE,68,0.0,2.2,50,0.00,,---,0.00,VWS V14.01,2013-12-25 23:54:00,
2013-12-25 18:59:00,28.9,12.6,27.70,ENE,68,0.0,0.0,50,0.00,,---,0.00,VWS V14.01,2013-12-25 23:59:00,
2013-12-25 19:04:00,28.8,12.5,27.70,ENE,68,0.0,0.0,50,0.00,,---,0.00,VWS V14.01,2013-12-26 00:04:00,
2013-12-25 19:09:00,28.6,12.3,27.70,ENE,68,0.0,0.0,50,0.00,,---,0.00,VWS V14.01,2013-12-26 00:09:00,
2013-12-25 19:14:00,28.4,12.6,27.70,ENE,68,0.0,0.0,51,0.00,,---,0.00,VWS V14.01,2013-12-26 00:14:00,
2013-12-25 19:19:00,28.2,12.4,27.70,ENE,68,0.0,0.0,51,0.00,,---,0.00,VWS V14.01,2013-12-26 00:19:00,
2013-12-25 19:23:00,28.0,12.3,27.70,ENE,68,0.0,0.0,51,0.00,,---,0.00,VWS V14.01,2013-12-26 00:23:00,
2013-12-25 19:28:00,27.9,12.1,27.70,ENE,68,0.0,0.0,51,0.00,,---,0.00,VWS V14.01,2013-12-26 00:28:00,
2013-12-25 19:33:00,27.7,12.8,27.70,ENE,68,0.0,0.0,53,0.00,,---,0.00,VWS V14.01,2013-12-26 00:33:00,
2013-12-25 19:38:00,27.5,12.6,27.70,ENE,68,0.0,0.0,53,0.00,,---,0.00,VWS V14.01,2013-12-26 00:38:00,
2013-12-25 19:43:00,27.3,12.9,27.70,ENE,68,0.0,0.0,54,0.00,,---,0.00,VWS V14.01,2013-12-26 00:43:00,
2013-12-25 19:48:00,27.1,13.1,27.70,ENE,68,0.0,0.0,55,0.00,,---,0.00,VWS V14.01,2013-12-26 00:48:00,
2013-12-25 19:53:00,27.0,13.0,27.70,ENE,68,0.0,0.0,55,0.00,,---,0.00,VWS V14.01,2013-12-26 00:53:00,
2013-12-25 19:58:00,26.8,13.2,27.70,ENE,68,0.0,0.0,56,0.00,,---,0.00,VWS V14.01,2013-12-26 00:58:00,
2013-12-25 20:03:00,26.6,13.0,27.70,ENE,68,0.0,0.0,56,0.00,,---,0.00,VWS V14.01,2013-12-26 01:03:00,
2013-12-25 20:09:00,26.6,13.0,27.70,ENE,68,0.0,0.0,56,0.00,,---,0.00,VWS V14.01,2013-12-26 01:09:00,
2013-12-25 20:14:00,26.6,13.0,27.70,ENE,68,0.0,0.0,56,0.00,,---,0.00,VWS V14.01,2013-12-26 01:14:00,
2013-12-25 20:19:00,26.4,12.9,27.70,ENE,68,0.0,0.0,56,0.00,,---,0.00,VWS V14.01,2013-12-26 01:19:00,
2013-12-25 20:24:00,26.2,12.7,27.70,ENE,68,0.0,0.0,56,0.00,,---,0.00,VWS V14.01,2013-12-26 01:24:00,
2013-12-25 20:28:00,26.1,13.3,27.70,ENE,68,0.0,0.0,58,0.00,,---,0.00,VWS V14.01,2013-12-26 01:28:00,
2013-12-25 20:33:00,26.1,13.3,27.70,ENE,68,0.0,0.0,58,0.00,,---,0.00,VWS V14.01,2013-12-26 01:33:00,
2013-12-25 20:38:00,26.1,13.7,27.70,ENE,68,0.0,0.0,59,0.00,,---,0.00,VWS V14.01,2013-12-26 01:38:00,
2013-12-25 20:43:00,25.9,13.5,27.70,ENE,68,0.0,0.0,59,0.00,,---,0.00,VWS V14.01,2013-12-26 01:43:00,
2013-12-25 20:48:00,25.7,13.4,27.70,ENE,68,0.0,0.0,59,0.00,,---,0.00,VWS V14.01,2013-12-26 01:48:00,
2013-12-25 20:53:00,25.7,13.0,27.70,ENE,68,0.0,0.0,58,0.00,,---,0.00,VWS V14.01,2013-12-26 01:53:00,
2013-12-25 20:58:00,25.7,13.0,27.70,ENE,68,0.0,0.0,58,0.00,,---,0.00,VWS V14.01,2013-12-26 01:58:00,
2013-12-25 21:03:00,25.7,13.4,27.70,ENE,68,0.0,0.0,59,0.00,,---,0.00,VWS V14.01,2013-12-26 02:03:00,
2013-12-25 21:08:00,25.5,13.2,27.70,ENE,68,0.0,0.0,59,0.00,,---,0.00,VWS V14.01,2013-12-26 02:08:00,
2013-12-25 21:13:00,25.5,12.8,27.70,ENE,68,0.0,0.0,58,0.00,,---,0.00,VWS V14.01,2013-12-26 02:13:00,
2013-12-25 21:18:00,25.3,12.2,27.70,ENE,68,0.0,0.0,57,0.00,,---,0.00,VWS V14.01,2013-12-26 02:18:00,
2013-12-25 21:23:00,25.3,12.2,27.70,ENE,68,0.0,0.0,57,0.00,,---,0.00,VWS V14.01,2013-12-26 02:23:00,
2013-12-25 21:28:00,25.3,12.2,27.70,ENE,68,0.0,0.0,57,0.00,,---,0.00,VWS V14.01,2013-12-26 02:28:00,
2013-12-25 21:33:00,25.5,12.0,27.70,ENE,68,3.1,3.1,56,0.00,,---,0.00,VWS V14.01,2013-12-26 02:33:00,
2013-12-25 21:38:00,25.5,11.6,27.70,ENE,68,2.7,2.7,55,0.00,,---,0.00,VWS V14.01,2013-12-26 02:38:00,
2013-12-25 21:43:00,25.3,11.9,27.70,ENE,68,0.0,0.0,56,0.00,,---,0.00,VWS V14.01,2013-12-26 02:43:00,
2013-12-25 21:48:00,25.0,12.3,27.70,ENE,68,0.0,0.0,58,0.00,,---,0.00,VWS V14.01,2013-12-26 02:48:00,
2013-12-25 21:53:00,24.8,12.5,27.70,ENE,68,0.0,0.0,59,0.00,,---,0.00,VWS V14.01,2013-12-26 02:53:00,
2013-12-25 21:58:00,24.6,12.4,27.70,ENE,68,0.0,0.0,59,0.00,,---,0.00,VWS V14.01,2013-12-26 02:58:00,
2013-12-25 22:03:00,24.6,12.7,27.70,ENE,68,0.0,0.0,60,0.00,,---,0.00,VWS V14.01,2013-12-26 03:03:00,
2013-12-25 22:08:00,24.4,12.6,27.70,ENE,68,0.0,0.0,60,0.00,,---,0.00,VWS V14.01,2013-12-26 03:08:00,
2013-12-25 22:13:00,24.3,12.4,27.70,ENE,68,0.0,0.0,60,0.00,,---,0.00,VWS V14.01,2013-12-26 03:13:00,
2013-12-25 22:18:00,24.1,12.2,27.70,ENE,68,0.0,0.0,60,0.00,,---,0.00,VWS V14.01,2013-12-26 03:18:00,
2013-12-25 22:23:00,24.1,12.2,27.70,ENE,68,0.0,0.0,60,0.00,,---,0.00,VWS V14.01,2013-12-26 03:23:00,
2013-12-25 22:28:00,24.1,12.2,27.70,ENE,68,0.0,0.0,60,0.00,,---,0.00,VWS V14.01,2013-12-26 03:28:00,
2013-12-25 22:33:00,23.9,11.7,27.70,ENE,68,0.0,0.0,59,0.00,,---,0.00,VWS V14.01,2013-12-26 03:33:00,
2013-12-25 22:38:00,23.9,11.7,27.70,ENE,68,0.0,0.0,59,0.00,,---,0.00,VWS V14.01,2013-12-26 03:38:00,
2013-12-25 22:43:00,24.1,11.8,27.70,ENE,68,0.0,0.0,59,0.00,,---,0.00,VWS V14.01,2013-12-26 03:43:00,
2013-12-25 22:48:00,24.1,11.8,27.70,ENE,68,0.0,0.0,59,0.00,,---,0.00,VWS V14.01,2013-12-26 03:48:00,
2013-12-25 22:53:00,24.1,12.2,27.70,ENE,68,0.0,0.0,60,0.00,,---,0.00,VWS V14.01,2013-12-26 03:53:00,
2013-12-25 22:58:00,24.1,12.2,27.70,ENE,68,0.0,0.0,60,0.00,,---,0.00,VWS V14.01,2013-12-26 03:58:00,
2013-12-25 23:03:00,23.9,12.1,27.70,ENE,68,0.0,0.0,60,0.00,,---,0.00,VWS V14.01,2013-12-26 04:03:00,
2013-12-25 23:08:00,23.9,12.4,27.70,ENE,68,0.0,0.0,61,0.00,,---,0.00,VWS V14.01,2013-12-26 04:08:00,
2013-12-25 23:13:00,23.7,12.6,27.70,ENE,68,0.0,0.0,62,0.00,,---,0.00,VWS V14.01,2013-12-26 04:13:00,
2013-12-25 23:18:00,23.5,12.8,27.70,ENE,68,0.0,0.0,63,0.00,,---,0.00,VWS V14.01,2013-12-26 04:18:00,
2013-12-25 23:23:00,23.5,12.8,27.70,ENE,68,0.0,0.0,63,0.00,,---,0.00,VWS V14.01,2013-12-26 04:23:00,
2013-12-25 23:28:00,23.5,13.2,27.70,ENE,68,0.0,0.0,64,0.00,,---,0.00,VWS V14.01,2013-12-26 04:28:00,
2013-12-25 23:33:00,23.5,13.2,27.70,ENE,68,0.0,0.0,64,0.00,,---,0.00,VWS V14.01,2013-12-26 04:33:00,
2013-12-25 23:38:00,23.5,13.2,27.70,ENE,68,0.0,0.0,64,0.00,,---,0.00,VWS V14.01,2013-12-26 04:38:00,
2013-12-25 23:43:00,23.7,13.7,27.70,ENE,68,0.0,0.0,65,0.00,,---,0.00,VWS V14.01,2013-12-26 04:43:00,
2013-12-25 23:48:00,23.7,13.7,27.67,North,0,4.9,4.9,65,0.00,,---,0.00,VWS V14.01,2013-12-26 04:48:00,
2013-12-25 23:53:00,23.9,13.5,27.67,ESE,118,2.7,2.7,64,0.00,,---,0.00,VWS V14.01,2013-12-26 04:53:00,
2013-12-25 23:58:00,24.4,14.0,27.67,NNE,16,5.8,5.8,64,0.00,,---,0.00,VWS V14.01,2013-12-26 04:58:00,